Погода в Седово

Украина / Донецкая область     47°04′25″N   38°09′30″E
темп.,
°C
ветер,
м/с
пор.,
м/с
влажн.,
%
обл.,
%
осадки,
мм/ч
давл.,
гПа
погр.,
м
13 июня, вс
вс1300:00+22юз677533 0.1 1011526
03:00+22з56745 0.8 1011424
06:00+22юз45725 0.3 1011271
09:00+22юз33694 0.4 1011275
12:00+23зюз34642 0.0 1011335
15:00+23зюз55680 0.0 1011333
18:00+23зюз56730 0.0 1011312
21:00+22юз34754 0.0 1011206
14 июня, пн
пн1400:00+22ю33747 0.3 1012172
03:00+21ююз447398 0.6 1011325
06:00+21ю337769 0.1 1011310
09:00+21юв2374100 0.4 1012324
12:00+21всв227150 0.0 1012241
15:00+22св34661 0.0 1012163
18:00+24всв34655 0.0 101157
21:00+24св67687 0.0 101082
15 июня, вт
вт1500:00+23всв57773 0.1 1010147
03:00+22св6877100 0.3 1010220
06:00+21всв81078100 0.3 1009297
09:00+21вюв567699 2.0 1010311
12:00+22юв4576100 0.9 1010485
15:00+22ююв2274100 1.3 1010282
18:00+21з227692 0.1 1009181
21:00+22в01720 0.3 1009137
16 июня, ср
ср1600:00+22з227321 0.0 1009276
03:00+21з2376100 0.0 1009402
06:00+21зюз5583100 1.3 1010505
09:00+19зюз10888100 4.1 1011524
12:00+18юз348699 4.6 1012407
15:00+19зюз34770 4.8 1012561
18:00+20з33740 0.0 1012440
21:00+20зсз12710 0.0 1013299
17 июня, чт
чт1700:00+20с21700 0.0 1012253
03:00+19ссв44790 0.0 1013303
06:00+19св6681100 0.0 1013292
09:00+20ссв5573100 0.0 1013390
12:00+23св2466100 0.1 1013445
15:00+20юв4487100 3.9 1014184
18:00+20ссв2289100 5.8 1012169
21:00+20з8993100 16.1 1011512